Weather WX

World > North America > United States > Ohio

Powhatan Point, Ohio Regional Weather

Lat: 39.86N, Lon: 80.81W
Wx Zone: OHZ059
Feedback

Powhatan Point, OH Regional Weather

Expires:201906270300;;134915
ASUS41 KCLE 270212
RWRCLE
OHIO REGIONAL WEATHER ROUNDUP
NATIONAL WEATHER SERVICE WILMINGTON, OH
1000 PM EDT WED JUN 26 2019

NOTE: "FAIR" INDICATES FEW OR NO CLOUDS BELOW 12,000 FEET WITH NO
SIGNIFICANT WEATHER AND/OR OBSTRUCTIONS TO VISIBILITY.


OHZ036-037-039>041-045>050-054>059-063>069-073>076-082>088-270300-
  CENTRAL AND SOUTHEAST OHIO
  
CITY           SKY/WX    TMP DP  RH WIND       PRES   REMARKS
COLUMBUS       LGT RAIN  80  65  59 NW8       30.11R                  
OSU AIRPORT    FAIR      74  68  81 CALM      30.12R                  
BOLTON FIELD   FAIR      77  68  74 SW3       30.13R                  
RICKENBACK AFB FAIR      77  65  65 SW5       30.11R                  
NEWARK         FAIR      76  68  76 W3        30.11R                  
MARION         FAIR      78  62  57 SW3       30.12R                  
LANCASTER      FAIR      75  67  76 CALM      30.12R                  
ZANESVILLE     FAIR      77  67  71 SW3       30.12R                  
NEW PHILLY     FAIR      75  66  73 CALM      30.12R                  
$$
  

SKY/WX - Weather  TMP - Temperature  DP - Dew Point  RH - Relative Humidity
WIND - Wind Direction/Speed PRES - Barometric Pressure VSB - Visibility
WCI - Wind Chill Index E13G22 Wind - East Wind 13 mph/Gusts of 22 mph